Regional Weather Roundup
Issued by NWS Midland/Odessa, TX

Skip options and go directly to product.
Home | Oldest Version | Previous Version | Current Version | All | Text Only | Save Text | Print | Product List | Glossary Off

Skip product version selection by date and time.   

330
ASUS44 KMAF 140801
RWRMAF
MIDLAND AREA WEATHER ROUNDUP
NATIONAL WEATHER SERVICE MIDLAND TX
200 AM CST SUN FEB 14 2016

...IN SOUTHWEST TEXAS AND SOUTHEAST NEW MEXICO...

CITY           SKY/WX    TMP DP  RH WIND       PRES   REMARKS
ALPINE         PTCLDY    58  14  18 SW7       30.12F
ANDREWS        FAIR      54  40  57 SW15G21   29.98F
ARTESIA        CLEAR     46  16  29 CALM      29.98R
BIG SPRING     CLEAR     55  41  58 S16       29.99F
CARLSBAD       CLOUDY    43  26  51 N8        29.96F WCI  38
DRYDEN           N/A     53  36  52 NE9       29.99F
FORT STOCKTON  PTCLDY    56  36  47 S12       29.98F
GUAD PASS      CLOUDY    53   7  15 SW9       30.09F
HOBBS          CLOUDY    46  39  76 S9        29.99F
MARFA          CLOUDY    35  14  42 N5        30.11F WCI  31
MIDLAND AIRPK  CLOUDY    58  41  53 S12       29.98F
MIDLAND INTL   CLOUDY    55  40  56 S12       29.96F
ODESSA         CLOUDY    56  39  53 S13       29.98F
PECOS          PTCLDY    40  27  59 CALM      29.97F
PRESIDIO       FAIR      58  16  19 NE3       30.01S
SEMINOLE       CLOUDY    49  40  71 SW13      29.98F
SNYDER           N/A     52  40  63 S9        29.96F
WINK           CLOUDY    46  39  76 SE8       29.97F
$$
...OTHER STATIONS IN TEXAS...

CITY           SKY/WX    TMP DP  RH WIND       PRES   REMARKS
ABILENE        CLEAR     57  47  69 S18       29.95F
AMARILLO       CLOUDY    44  22  41 W8        29.88F WCI  39
AUSTIN         MOCLDY    56  54  93 S6        30.09F
BROWNSVILLE    PTCLDY    63  57  81 SE9       30.10F
CORPUS CHRISTI PTCLDY    53  51  93 SE8       30.10F
DALLAS FTW     PTCLDY    59  53  80 S21G28    30.00F
DEL RIO        CLEAR     57  49  74 E8        30.04F
EL PASO        MOCLDY    51  14  22 NE7       30.04R
HOUSTON INT    CLOUDY    58  54  86 SE9       30.14F
LUBBOCK        CLEAR     51  40  65 SW16      29.92F
SAN ANGELO     CLOUDY    57  46  66 S21G32    29.97F
SAN ANTONIO    PTCLDY    56  53  90 S8        30.10F
WACO           MOCLDY    57  53  86 S20       30.06F
WICHITA FALLS  NOT AVBL
$$
...OTHER LOCATIONS IN NEW MEXICO...

CITY           SKY/WX    TMP DP  RH WIND       PRES   REMARKS
ALAMAGORDO     CLOUDY    48  10  21 NE7       30.05R
ALBUQUERQUE    CLOUDY    49  13  23 NW7       30.10F
CANNON AFB     CLOUDY    44  16  32 NW7       29.95F WCI  40
CLOVIS         CLOUDY    43  18  36 W13       29.96S WCI  36
HOLLOMAN AFB   PTCLDY    39   7  26 NW2       30.04R
ROSWELL        CLOUDY    43  17  35 N5        29.98S
RUIDOSO          N/A     46   7  19 NW8       30.14F
SANTA FE       CLOUDY    39  16  39 N5        30.10R WCI  36
TRUTH OR CONSE MOCLDY    51  11  20 NW14      30.08F
TUCUMCARI      CLOUDY    38  19  46 CALM      29.93S
$$

USA.gov is the U.S. government's official web portal to all federal, state and local government web resources and services.